N19PA KPHX-KLAX

Flight info

Callsign N19PA
Flight time N/A
Altitude 12000
Route BXK4 BLH JLI VISTA3
Aircraft DA62/L-SDFGRY/C

Departure

Time 2026-05-04 01:33
Airport Phoenix Sky Harbor International Airport (KPHX)

Arrival

Time N/A
Airport Los Angeles International Airport (KLAX)
Time Latitude Longitude Altitude Speed Heading
2026-05-04 01:17 33.42425 -112.01860 1125 ft 0 kts 270°
2026-05-04 01:26 33.42425 -112.01863 1125 ft 1 kts 297°
2026-05-04 01:27 33.42474 -112.01888 1125 ft 16 kts 359°
2026-05-04 01:27 33.42610 -112.01888 1125 ft 23 kts 359°
2026-05-04 01:27 33.42722 -112.01888 1124 ft 0 kts 12°
2026-05-04 01:28 33.42753 -112.01880 1124 ft 10 kts 26°
2026-05-04 01:29 33.42777 -112.01782 1124 ft 18 kts 90°
2026-05-04 01:29 33.42777 -112.01597 1125 ft 26 kts 89°
2026-05-04 01:29 33.42777 -112.01355 1125 ft 32 kts 90°
2026-05-04 01:29 33.42777 -112.01061 1125 ft 37 kts 90°
2026-05-04 01:30 33.42776 -112.00777 1125 ft 32 kts 89°
2026-05-04 01:30 33.42778 -112.00593 1125 ft 13 kts 90°
2026-05-04 01:30 33.42791 -112.00546 1120 ft 0 kts 34°
2026-05-04 01:31 33.42791 -112.00545 1121 ft 1 kts 31°
2026-05-04 01:32 33.42843 -112.00532 1113 ft 15 kts 352°
2026-05-04 01:32 33.42887 -112.00723 1122 ft 46 kts 268°
2026-05-04 01:32 33.42883 -112.01276 1152 ft 82 kts 270°
2026-05-04 01:32 33.42894 -112.02024 1255 ft 95 kts 268°
2026-05-04 01:33 33.42875 -112.02869 1465 ft 107 kts 268°
2026-05-04 01:33 33.42829 -112.03803 1719 ft 113 kts 267°
2026-05-04 01:33 33.42791 -112.04717 2024 ft 109 kts 268°
2026-05-04 01:33 33.42843 -112.05645 2239 ft 116 kts 267°
2026-05-04 01:34 33.42971 -112.06595 2540 ft 115 kts 268°
2026-05-04 01:34 33.43086 -112.07520 2903 ft 111 kts 270°
2026-05-04 01:34 33.43185 -112.08476 3115 ft 119 kts 268°
2026-05-04 01:34 33.43086 -112.09395 3500 ft 105 kts 237°
2026-05-04 01:35 33.42800 -112.10100 4034 ft 85 kts 240°
2026-05-04 01:35 33.42563 -112.10703 4447 ft 79 kts 240°
2026-05-04 01:35 33.42330 -112.11303 4771 ft 80 kts 240°
2026-05-04 01:35 33.42092 -112.11889 5152 ft 78 kts 240°
2026-05-04 01:36 33.41854 -112.12479 5518 ft 79 kts 240°
2026-05-04 01:36 33.41618 -112.13082 5892 ft 82 kts 239°
2026-05-04 01:36 33.41376 -112.13715 6244 ft 84 kts 239°
2026-05-04 01:36 33.41139 -112.14356 6618 ft 85 kts 239°
2026-05-04 01:37 33.40906 -112.15007 7001 ft 85 kts 238°
2026-05-04 01:37 33.40445 -112.15282 7374 ft 84 kts 168°
2026-05-04 01:37 33.39862 -112.15211 7703 ft 86 kts 186°
2026-05-04 01:37 33.39268 -112.15124 8055 ft 86 kts 179°
2026-05-04 01:38 33.38674 -112.15037 8439 ft 86 kts 180°
2026-05-04 01:38 33.38082 -112.14959 8843 ft 85 kts 177°
2026-05-04 01:38 33.37496 -112.14909 9225 ft 86 kts 179°
2026-05-04 01:38 33.36891 -112.14876 9621 ft 86 kts 179°
2026-05-04 01:39 33.36292 -112.14851 9987 ft 86 kts 180°
2026-05-04 01:39 33.35697 -112.14822 10337 ft 88 kts 180°
2026-05-04 01:39 33.35076 -112.14783 10711 ft 89 kts 180°
2026-05-04 01:39 33.34534 -112.15009 11071 ft 91 kts 237°
2026-05-04 01:40 33.34582 -112.15805 11440 ft 102 kts 269°
2026-05-04 01:40 33.34718 -112.16643 11743 ft 111 kts 270°
2026-05-04 01:40 33.34864 -112.17679 11761 ft 141 kts 270°
2026-05-04 01:40 33.35009 -112.18936 11760 ft 162 kts 269°
2026-05-04 01:41 33.35154 -112.20335 11771 ft 176 kts 270°
2026-05-04 01:41 33.35296 -112.21823 11774 ft 183 kts 270°
2026-05-04 01:41 33.35437 -112.23362 11771 ft 188 kts 269°
2026-05-04 01:41 33.35578 -112.24923 11776 ft 190 kts 270°
2026-05-04 01:42 33.35720 -112.26497 11772 ft 191 kts 270°
2026-05-04 01:42 33.35816 -112.27563 11776 ft 191 kts 270°
2026-05-04 01:42 33.35960 -112.29146 11779 ft 192 kts 270°
2026-05-04 01:42 33.36104 -112.30735 11776 ft 193 kts 270°
2026-05-04 01:43 33.36246 -112.32328 11778 ft 193 kts 269°
2026-05-04 01:43 33.36388 -112.33923 11778 ft 193 kts 270°
2026-05-04 01:43 33.36529 -112.35513 11775 ft 192 kts 269°
2026-05-04 01:43 33.36670 -112.37101 11777 ft 192 kts 270°
2026-05-04 01:44 33.36829 -112.38686 11778 ft 192 kts 271°
2026-05-04 01:44 33.36998 -112.40279 11772 ft 193 kts 271°
2026-05-04 01:44 33.37168 -112.41875 11776 ft 194 kts 271°
2026-05-04 01:44 33.37337 -112.43473 11776 ft 194 kts 271°
2026-05-04 01:45 33.37505 -112.45072 11775 ft 194 kts 270°
2026-05-04 01:45 33.37673 -112.46665 11775 ft 193 kts 271°
2026-05-04 01:45 33.38005 -112.49833 11774 ft 193 kts 271°
2026-05-04 01:46 33.38172 -112.51426 11774 ft 193 kts 271°
2026-05-04 01:46 33.38340 -112.53037 11770 ft 193 kts 271°
2026-05-04 01:46 33.38504 -112.54608 11790 ft 193 kts 270°
2026-05-04 01:46 33.38670 -112.56196 11792 ft 193 kts 270°
2026-05-04 01:47 33.38836 -112.57786 11794 ft 193 kts 270°
2026-05-04 01:47 33.39002 -112.59376 11795 ft 193 kts 270°
2026-05-04 01:47 33.39167 -112.60966 11796 ft 193 kts 270°
2026-05-04 01:47 33.39332 -112.62561 11796 ft 193 kts 271°
2026-05-04 01:48 33.39497 -112.64152 11795 ft 192 kts 270°
2026-05-04 01:48 33.39662 -112.65739 11797 ft 192 kts 271°
2026-05-04 01:48 33.39826 -112.67325 11796 ft 192 kts 270°
2026-05-04 01:48 33.39989 -112.68909 11795 ft 192 kts 271°
2026-05-04 01:49 33.40153 -112.70496 11796 ft 192 kts 271°
2026-05-04 01:49 33.40317 -112.72086 11794 ft 193 kts 270°
2026-05-04 01:49 33.40480 -112.73675 11794 ft 192 kts 271°
2026-05-04 01:49 33.40644 -112.75262 11794 ft 192 kts 270°
2026-05-04 01:50 33.40808 -112.76866 11796 ft 192 kts 271°
2026-05-04 01:50 33.40970 -112.78447 11795 ft 192 kts 271°
2026-05-04 01:50 33.41130 -112.80011 11795 ft 192 kts 271°
2026-05-04 01:50 33.41292 -112.81598 11792 ft 192 kts 271°
2026-05-04 01:51 33.41457 -112.83209 11791 ft 192 kts 270°
2026-05-04 01:51 33.41617 -112.84775 11787 ft 192 kts 271°
2026-05-04 01:51 33.41778 -112.86363 11785 ft 192 kts 271°
2026-05-04 01:51 33.41940 -112.87947 11782 ft 192 kts 271°
2026-05-04 01:52 33.42100 -112.89531 11780 ft 192 kts 271°
2026-05-04 01:52 33.42261 -112.91116 11779 ft 192 kts 271°
2026-05-04 01:52 33.42421 -112.92700 11776 ft 192 kts 271°
2026-05-04 01:52 33.42582 -112.94289 11773 ft 193 kts 271°
2026-05-04 01:53 33.42743 -112.95879 11769 ft 193 kts 270°
2026-05-04 01:53 33.42904 -112.97471 11770 ft 192 kts 271°
2026-05-04 01:53 33.43064 -112.99061 11766 ft 192 kts 271°
2026-05-04 01:53 33.43223 -113.00642 11765 ft 191 kts 271°
2026-05-04 01:54 33.43382 -113.02225 11767 ft 191 kts 271°
2026-05-04 01:54 33.43541 -113.03805 11762 ft 191 kts 271°
2026-05-04 01:54 33.43699 -113.05388 11759 ft 192 kts 271°
2026-05-04 01:54 33.43858 -113.06973 11755 ft 192 kts 271°
2026-05-04 01:55 33.44017 -113.08556 11754 ft 191 kts 271°
2026-05-04 01:55 33.44175 -113.10137 11752 ft 191 kts 271°
2026-05-04 01:55 33.44332 -113.11715 11750 ft 191 kts 271°
2026-05-04 01:55 33.44489 -113.13294 11749 ft 191 kts 271°
2026-05-04 01:56 33.44646 -113.14872 11750 ft 191 kts 271°
2026-05-04 01:56 33.44803 -113.16450 11751 ft 191 kts 271°
2026-05-04 01:56 33.44960 -113.18026 11754 ft 191 kts 271°
2026-05-04 01:56 33.45116 -113.19602 11765 ft 191 kts 271°
2026-05-04 01:57 33.45272 -113.21180 11783 ft 191 kts 271°
2026-05-04 01:57 33.45428 -113.22762 11801 ft 191 kts 271°
2026-05-04 01:57 33.45584 -113.24343 11815 ft 191 kts 271°
2026-05-04 01:57 33.45740 -113.25922 11834 ft 191 kts 271°
2026-05-04 01:58 33.45896 -113.27503 11854 ft 191 kts 271°
2026-05-04 01:58 33.46051 -113.29077 11871 ft 191 kts 271°
2026-05-04 01:58 33.46204 -113.30651 11890 ft 190 kts 271°
2026-05-04 01:58 33.46359 -113.32222 11906 ft 190 kts 271°
2026-05-04 01:59 33.46513 -113.33796 11924 ft 190 kts 271°
2026-05-04 01:59 33.46667 -113.35370 11936 ft 190 kts 271°
2026-05-04 01:59 33.46820 -113.36934 11951 ft 189 kts 271°
2026-05-04 01:59 33.46972 -113.38496 11966 ft 189 kts 271°
2026-05-04 02:00 33.47124 -113.40050 11981 ft 188 kts 271°
2026-05-04 02:00 33.47274 -113.41609 12002 ft 189 kts 271°
2026-05-04 02:00 33.47427 -113.43179 12016 ft 190 kts 271°
2026-05-04 02:00 33.47580 -113.44751 12029 ft 190 kts 271°
2026-05-04 02:01 33.47733 -113.46320 12044 ft 190 kts 271°
2026-05-04 02:01 33.47884 -113.47890 12061 ft 190 kts 271°
2026-05-04 02:01 33.48035 -113.49460 12071 ft 189 kts 271°
2026-05-04 02:01 33.48185 -113.51003 12085 ft 189 kts 271°
2026-05-04 02:02 33.48335 -113.52565 12095 ft 189 kts 271°
2026-05-04 02:02 33.48485 -113.54123 12106 ft 188 kts 270°
2026-05-04 02:02 33.48635 -113.55678 12110 ft 188 kts 271°
2026-05-04 02:02 33.48781 -113.57195 12121 ft 187 kts 271°
2026-05-04 02:03 33.48922 -113.58631 12115 ft 165 kts 270°
2026-05-04 02:03 33.49051 -113.59994 12114 ft 170 kts 270°
2026-05-04 02:03 33.49177 -113.61359 12114 ft 176 kts 271°
2026-05-04 02:03 33.49317 -113.62825 12115 ft 179 kts 271°
2026-05-04 02:04 33.49460 -113.64322 12113 ft 182 kts 271°
2026-05-04 02:04 33.49605 -113.65840 12110 ft 184 kts 271°
2026-05-04 02:04 33.49752 -113.67368 12096 ft 185 kts 271°